When you browse on this site, cookies collect data to enhance your experience and personalize the content and advertising you see.
Visit our Privacy Policy to learn more. By continuing to use the site, you agree to this use of cookies and data.
  • In Hungary
  • List of Countries
  • For 7 days
  • Water Temperature
  • Satellite Maps
  • Weather Map
  • News
  • Weather Widgets
  • user-avatar
    Login

    Hourly Weather Yangishahar

    Today, 15 December, Saturday

    Time Temperature Precipitation Wind Pressure Humidity
    00:00 +6°C° 0 mm 2 mps 707 mmHg 29%
    01:00 +5°C° 0 mm 2 mps 706 mmHg 30%
    02:00 +5°C° 0 mm 2 mps 706 mmHg 30%
    03:00 +5°C° 0 mm 2 mps 706 mmHg 31%
    04:00 +5°C° 0 mm 2 mps 706 mmHg 31%
    05:00 +5°C° 0 mm 2 mps 706 mmHg 31%
    06:00 +5°C° 0 mm 2 mps 706 mmHg 31%
    07:00 +5°C° 0 mm 2 mps 706 mmHg 32%
    08:00 +5°C° 0 mm 2 mps 706 mmHg 33%
    09:00 +6°C° 0 mm 2 mps 706 mmHg 30%
    10:00 +8°C° 0 mm 2 mps 706 mmHg 27%
    11:00 +11°C° 0 mm 1 mps 706 mmHg 24%
    12:00 +12°C° 0 mm 1 mps 705 mmHg 23%
    13:00 +12°C° 0 mm 1 mps 705 mmHg 23%
    14:00 +13°C° 0 mm 1 mps 705 mmHg 22%
    15:00 +12°C° 0 mm 1 mps 705 mmHg 25%
    16:00 +10°C° 0 mm 1 mps 705 mmHg 27%
    17:00 +9°C° 0 mm 1 mps 705 mmHg 30%
    18:00 +9°C° 0 mm 1 mps 704 mmHg 31%
    19:00 +7°C° 0 mm 2 mps 704 mmHg 31%
    20:00 +7°C° 0 mm 2 mps 704 mmHg 32%
    21:00 +7°C° 0 mm 2 mps 704 mmHg 32%
    22:00 +8°C° 0 mm 1 mps 704 mmHg 32%
    23:00 +7°C° 0 mm 1 mps 704 mmHg 32%

    Tomorrow, 16 December, Sunday

    Time Temperature Precipitation Wind Pressure Humidity
    00:00 +7°C° 0 mm 1 mps 704 mmHg 33%
    01:00 +7°C° 0 mm 1 mps 704 mmHg 33%
    02:00 +7°C° 0 mm 1 mps 704 mmHg 33%
    03:00 +6°C° 0 mm 1 mps 705 mmHg 34%
    04:00 +6°C° 0 mm 1 mps 705 mmHg 35%
    05:00 +6°C° 0 mm 1 mps 706 mmHg 37%
    06:00 +6°C° 0 mm 1 mps 706 mmHg 39%
    07:00 +5°C° 0 mm 1 mps 707 mmHg 41%
    08:00 +4°C° 0 mm 2 mps 707 mmHg 43%
    09:00 +5°C° 0.1 mm 2 mps 708 mmHg 43%
    10:00 +6°C° 0.1 mm 2 mps 708 mmHg 43%
    11:00 +7°C° 0.1 mm 2 mps 708 mmHg 43%
    12:00 +7°C° 0 mm 2 mps 709 mmHg 44%
    13:00 +7°C° 0 mm 2 mps 709 mmHg 45%
    14:00 +7°C° 0 mm 2 mps 709 mmHg 46%
    15:00 +7°C° 0 mm 2 mps 710 mmHg 50%
    16:00 +6°C° 0 mm 2 mps 710 mmHg 54%
    17:00 +6°C° 0 mm 1 mps 710 mmHg 58%
    18:00 +5°C° 0 mm 2 mps 710 mmHg 59%
    19:00 +4°C° 0 mm 2 mps 710 mmHg 60%
    20:00 +4°C° 0 mm 2 mps 710 mmHg 61%
    21:00 +4°C° 0 mm 2 mps 709 mmHg 60%
    22:00 +4°C° 0 mm 2 mps 709 mmHg 59%
    23:00 +4°C° 0 mm 2 mps 709 mmHg 58%

    Day after tomorrow, 17 December, Monday

    Time Temperature Precipitation Wind Pressure Humidity
    00:00 +4°C° 0 mm 2 mps 708 mmHg 56%
    01:00 +4°C° 0 mm 2 mps 708 mmHg 54%
    02:00 +4°C° 0 mm 2 mps 708 mmHg 53%
    03:00 +4°C° 0 mm 2 mps 707 mmHg 52%
    04:00 +3°C° 0 mm 2 mps 707 mmHg 50%
    05:00 +3°C° 0 mm 2 mps 706 mmHg 49%
    06:00 +4°C° 0 mm 2 mps 706 mmHg 49%
    07:00 +5°C° 0 mm 1 mps 706 mmHg 48%
    08:00 +5°C° 0 mm 1 mps 706 mmHg 47%
    09:00 +6°C° 0 mm 1 mps 706 mmHg 44%
    10:00 +7°C° 0 mm 1 mps 706 mmHg 41%
    11:00 +8°C° 0 mm 1 mps 705 mmHg 38%
    12:00 +9°C° 0 mm 1 mps 705 mmHg 38%
    13:00 +9°C° 0 mm 1 mps 705 mmHg 37%
    14:00 +10°C° 0 mm 1 mps 705 mmHg 37%
    15:00 +9°C° 0 mm 1 mps 705 mmHg 40%
    16:00 +8°C° 0 mm 1 mps 705 mmHg 44%
    17:00 +8°C° 0 mm 1 mps 705 mmHg 47%
    18:00 +7°C° 0.1 mm 1 mps 705 mmHg 48%
    19:00 +7°C° 0.1 mm 1 mps 705 mmHg 49%
    20:00 +7°C° 0.1 mm 1 mps 705 mmHg 50%
    21:00 +7°C° 0.1 mm 1 mps 705 mmHg 52%
    22:00 +7°C° 0.1 mm 1 mps 705 mmHg 54%
    23:00 +7°C° 0.1 mm 1 mps 705 mmHg 56%

    18 December, Tuesday

    Time Temperature Precipitation Wind Pressure Humidity
    00:00 +7°C° 0.2 mm 1 mps 705 mmHg 59%
    01:00 +6°C° 0.2 mm 1 mps 704 mmHg 61%
    02:00 +5°C° 0.2 mm 2 mps 704 mmHg 64%
    03:00 +6°C° 0.3 mm 1 mps 704 mmHg 66%
    04:00 +6°C° 0.3 mm 1 mps 703 mmHg 68%
    05:00 +6°C° 0.3 mm 1 mps 703 mmHg 70%
    06:00 +6°C° 0.2 mm 1 mps 703 mmHg 71%
    07:00 +6°C° 0.2 mm 1 mps 703 mmHg 72%
    08:00 +6°C° 0.2 mm 1 mps 703 mmHg 73%
    09:00 +6°C° 0.1 mm 1 mps 703 mmHg 71%
    10:00 +7°C° 0.1 mm 1 mps 704 mmHg 69%
    11:00 +6°C° 0.1 mm 2 mps 704 mmHg 67%
    12:00 +6°C° 0 mm 2 mps 704 mmHg 65%
    13:00 +7°C° 0 mm 2 mps 704 mmHg 62%
    14:00 +7°C° 0 mm 2 mps 704 mmHg 60%
    15:00 +6°C° 0 mm 2 mps 704 mmHg 63%
    16:00 +5°C° 0 mm 2 mps 704 mmHg 67%
    17:00 +5°C° 0 mm 2 mps 705 mmHg 70%
    18:00 +5°C° 0.1 mm 2 mps 705 mmHg 70%
    19:00 +4°C° 0.1 mm 2 mps 705 mmHg 69%
    20:00 +4°C° 0.1 mm 2 mps 705 mmHg 69%
    21:00 +4°C° 0.1 mm 2 mps 704 mmHg 69%
    22:00 +4°C° 0.1 mm 2 mps 704 mmHg 68%
    23:00 +5°C° 0.1 mm 1 mps 704 mmHg 68%

    19 December, Wednesday

    Time Temperature Precipitation Wind Pressure Humidity
    00:00 +5°C° 0.1 mm 1 mps 704 mmHg 69%
    01:00 +5°C° 0.1 mm 1 mps 703 mmHg 69%
    02:00 +5°C° 0.1 mm 1 mps 703 mmHg 70%
    03:00 +5°C° 0.1 mm 1 mps 703 mmHg 71%
    04:00 +5°C° 0.1 mm 1 mps 703 mmHg 71%
    05:00 +5°C° 0.1 mm 1 mps 703 mmHg 72%
    06:00 +5°C° 0.1 mm 1 mps 703 mmHg 72%
    07:00 +5°C° 0.1 mm 1 mps 703 mmHg 73%
    08:00 +5°C° 0.1 mm 1 mps 703 mmHg 73%
    09:00 +5°C° 0.1 mm 1 mps 703 mmHg 70%
    10:00 +6°C° 0.1 mm 1 mps 703 mmHg 68%
    11:00 +6°C° 0.1 mm 1 mps 703 mmHg 65%
    12:00 +7°C° 0.1 mm 1 mps 702 mmHg 66%
    13:00 +7°C° 0.1 mm 1 mps 702 mmHg 67%
    14:00 +7°C° 0.1 mm 1 mps 702 mmHg 67%
    15:00 +7°C° 0.1 mm 1 mps 702 mmHg 70%
    16:00 +6°C° 0.1 mm 1 mps 703 mmHg 74%
    17:00 +6°C° 0.1 mm 1 mps 703 mmHg 77%
    18:00 +6°C° 0.1 mm 1 mps 703 mmHg 77%
    19:00 +6°C° 0.1 mm 1 mps 704 mmHg 77%
    20:00 +6°C° 0.1 mm 1 mps 704 mmHg 77%
    21:00 +6°C° 0.1 mm 1 mps 704 mmHg 77%
    22:00 +4°C° 0.1 mm 0 mps 704 mmHg 78%
    23:00 +4°C° 0.1 mm 0 mps 704 mmHg 78%

    20 December, Thursday

    Time Temperature Precipitation Wind Pressure Humidity
    00:00 +5°C° 0.2 mm 1 mps 704 mmHg 80%
    01:00 +5°C° 0.2 mm 1 mps 704 mmHg 81%
    02:00 +5°C° 0.2 mm 1 mps 704 mmHg 83%
    03:00 +5°C° 0.2 mm 1 mps 704 mmHg 84%
    04:00 +4°C° 0.2 mm 0 mps 705 mmHg 86%
    05:00 +4°C° 0.2 mm 0 mps 705 mmHg 88%
    06:00 +3°C° 0.2 mm 0 mps 705 mmHg 88%
    07:00 +3°C° 0.2 mm 0 mps 705 mmHg 89%
    08:00 +3°C° 0.2 mm 0 mps 706 mmHg 90%
    09:00 +4°C° 0.2 mm 0 mps 706 mmHg 88%
    10:00 +4°C° 0.2 mm 0 mps 706 mmHg 86%
    11:00 +6°C° 0.2 mm 1 mps 706 mmHg 84%
    12:00 +6°C° 0.2 mm 1 mps 705 mmHg 83%
    13:00 +6°C° 0.2 mm 1 mps 705 mmHg 83%
    14:00 +6°C° 0.2 mm 1 mps 705 mmHg 82%
    15:00 +6°C° 0.2 mm 1 mps 705 mmHg 84%
    16:00 +6°C° 0.2 mm 1 mps 706 mmHg 86%
    17:00 +6°C° 0.2 mm 1 mps 706 mmHg 88%
    18:00 +5°C° 0.2 mm 1 mps 706 mmHg 89%
    19:00 +5°C° 0.2 mm 1 mps 706 mmHg 90%
    20:00 +5°C° 0.2 mm 1 mps 706 mmHg 91%
    21:00 +5°C° 0.2 mm 1 mps 706 mmHg 91%
    22:00 +4°C° 0.2 mm 0 mps 706 mmHg 92%
    23:00 +4°C° 0.2 mm 0 mps 705 mmHg 92%
    Show more